SCP
0 0 0 0 0 0 0 0 0 0 0 0 0 -0 -0 -0 -0 -0 -0 -0 -0 -0 -0 -0 -0 -0 -0 -0 -0 -0 -0 -0 -0 -0 -0 -0 -0 -0 -0 -0 0 -0 -0
0 0 0 0 0 0 0 0 0 0 0 0 -0 -0 -0 -0 -0 -0 -0 -0 -0 -0 -0 -0 -0 -0 -0 -0 -0 -0 -0 -0 -0 -0 -0 -0 -0 -0 -0 -0 -0 -0 -0
-0 0 0 0 0 0 0 0 0 0 0 0 -0 -0 -0 -0 -0 -0 -0 -0 -0 -0 -0 -0 -0 -0 -0 -0 -0 -0 -0 -0 -0 -0 -0 -0 -0 -0 -0 -0 -0 -0 -0
-0 0 0 0 0 0 0 -0 0 0 -0 0 -0 -0 -0 -0 -0 -0 -0 -0 -0 -0 -0 -0 -0 -0 -0 -0 -0 -0 -0 -0 -0 -0 0 -0 0 0 -0 -0 0 0 -0
-0 -0 -0 0 -0 -0 -0 -0 -0 0 -0 -0 0 0 0 0 -0 -0 -0 -0 -0 -0 -0 -0 -0 -0 -0 -0 -0 -0 -0 -0 -0 0 0 0 0 0 -0 -0 -0 0 0
0 -0 -0 -0 -0 -0 -0 -0 -0 -0 -1 -0 -0 -0 0 0 0 -0 0 0 0 0 0 -0 -0 -0 -0 -0 -0 -0 -0 -0 -0 -0 -0 0 0 0 0 0 0 0 0
-0 -0 -0 -0 -0 -0 -0 -0 -0 -0 -0 -1 -0 -0 0 0 0 0 -0 0 0 0 0 -0 -0 -0 -0 -0 -0 -0 -0 -0 0 0 -0 0 -0 0 0 -0 0 0 0
-0 -0 -0 -0 -0 -0 -0 -0 -1 -1 -0 -0 -0 -0 0 -0 0 -0 0 -0 0 0 0 -0 -0 -0 -0 -0 -0 -0 -0 0 0 -0 0 0 0 -0 -0 -0 0 0 0
-0 -0 -0 -0 -0 -0 -0 -0 -1 -1 -1 -0 -0 -0 -0 0 0 -0 -0 -0 -0 -0 0 -0 -0 -0 -0 -0 -0 -0 -0 0 0 0 0 0 -0 -0 -0 -0 -0 -0 0
0 -0 -0 -0 -0 -0 -0 -0 -0 -1 -1 -1 -0 -0 -0 -0 0 -0 -0 0 0 -0 -0 -0 -0 -0 -0 -0 -0 0 0 0 -0 0 -0 0 -0 0 0 0 -0 -0 0
0 -0 -0 -0 -0 -0 -0 -0 -0 -1 -1 -1 -0 -0 -0 -0 -0 0 -0 -0 0 0 -0 -0 -0 -0 -0 -0 -0 0 0 0 0 0 0 -0 -0 0 0 -0 -0 -0 0
-0 -0 -0 -0 -0 -0 -0 -0 -0 -0 -0 -0 -0 -0 -0 -0 -0 -0 0 0 0 0 0 -0 -0 -0 -0 0 -0 -0 -0 -0 0 0 -0 -0 -0 0 -0 -0 0 0 0
-0 -0 -0 -0 -0 -0 -0 -0 -0 -0 0 -0 -0 -0 -0 -0 -0 -0 0 0 0 0 0 0 -0 -0 -0 -0 -0 0 -0 0 0 -0 -0 -0 -0 0 -0 -0 0 0 0
-0 -0 -0 -0 -0 -0 -0 -0 -0 -0 -0 -0 -0 -0 -0 -0 -0 -0 0 0 0 0 0 -0 -0 -0 0 -0 -0 0 0 0 -0 -0 -0 -0 -0 0 0 0 0 0 0
-0 -0 -0 -0 -0 -0 -0 -0 0 0 0 -0 -0 -0 -0 -0 -0 -0 0 0 0 0 0 -0 0 0 0 0 0 0 0 0 0 0 -0 -0 -0 -0 0 0 0 -0 -0
-0 -0 -0 -0 -0 -0 -0 0 -0 0 -0 0 0 0 -0 -0 -0 -0 -0 0 0 0 0 0 0 -0 0 -0 0 0 -0 0 -0 0 0 -0 0 -0 -0 0 0 -0 -0
-0 -0 -0 -0 -0 -0 -0 -0 0 -0 0 0 0 0 0 -0 0 -0 -0 0 -0 0 0 -0 -0 -0 0 -0 -0 -0 0 0 0 -0 -0 -0 -0 -0 0 0 0 0 0
-0 -0 -0 -0 -0 -0 -0 -0 0 0 0 0 0 0 0 0 -0 -0 -0 -0 -0 -0 0 -0 -0 0 0 -0 0 0 0 0 -0 -0 -0 -0 -0 0 -0 -0 0 0 0
-0 -0 -0 -0 -0 -0 -0 -0 0 -0 0 0 -0 0 0 0 -0 -0 0 -0 -0 -0 0 -0 0 0 0 0 -0 -0 0 0 -0 -0 -0 -0 -0 0 -0 -0 -0 0 0
-0 -0 -0 -0 0 -0 -0 -0 0 0 0 -0 0 0 0 -0 -0 -0 0 0 -0 -0 -0 0 -0 -0 0 -0 0 -0 -0 -0 -0 -0 -0 -0 0 0 0 0 -0 -0 -0
0 -0 -0 -0 -0 -0 -0 -0 -0 0 0 0 0 -0 0 -0 -0 -0 -0 0 0 0 0 0 -0 -0 -0 -0 0 0 0 -0 -0 -0 -0 -0 0 0 0 0 -0 -0 -0
0 -0 -0 -0 -0 -0 -0 -0 -0 0 -0 -0 -0 -0 -0 -0 0 0 -0 -0 -0 -0 0 0 -0 -0 -0 0 0 -0 -0 0 0 0 0 -0 0 -0 0 0 -0 -0 -0
0 0 0 -0 -0 0 -0 0 -0 0 -0 -0 -0 -0 -0 -0 -0 -0 0 0 0 0 0 0 0 0 -0 0 0 0 0 0 -0 -0 0 0 -0 0 -0 -0 0 0 0
0 0 0 -0 -0 -0 0 0 -0 -0 -0 -0 0 0 0 -0 0 -0 -0 0 0 -0 -0 0 0 0 -0 0 0 0 0 0 0 0 0 0 0 -0 0 -0 -0 -0 -0
-0 0 0 -0 -0 -0 -0 -0 -0 -0 0 0 0 0 0 0 0 0 0 0 0 0 0 0 0 0 0 0 0 0 0 0 0 0 0 0 0 0 -0 -0 -0 -0 -0
-0 -0 0 0 -1 -0 -0 -0 -0 -0 0 0 0 0 0 0 0 0 0 0 0 0 0 0 0 0 0 0 0 0 0 0 0 0 0 0 0 0 0 -0 -0 -0 0
Wind_Speed_500mb
42 49 51 48 47 46 47 50 58 58 61 58 55 52 47 42 41 41 40 36 33 33 33 33 33 34 35 36 36 38 38 38 35 33 30 30 27 25 26 34 34 27 30
44 51 51 47 46 46 43 48 53 55 59 56 51 48 42 40 38 38 33 31 31 31 34 34 34 35 36 36 35 34 33 34 29 30 28 27 22 20 21 24 27 27 27
45 48 49 49 47 45 46 49 50 51 54 52 46 40 35 33 33 29 28 26 27 28 28 28 28 28 30 29 29 30 29 25 23 24 37 16 18 19 18 20 23 22 22
45 43 40 48 48 47 45 47 44 43 48 46 39 31 24 24 25 23 22 22 24 25 22 20 20 22 22 21 22 24 25 24 20 19 21 17 15 18 15 16 18 19 17
46 42 43 45 46 47 43 44 42 41 41 41 33 24 18 18 20 20 21 21 20 20 18 15 14 15 15 16 16 16 15 9 9 15 17 13 17 10 14 13 13 15 18
42 40 48 44 43 44 45 45 44 42 43 42 37 36 33 25 17 17 17 17 16 15 14 11 10 9 9 10 10 8 6 3 4 10 7 13 15 6 4 8 10 7 10
41 36 44 41 40 41 44 45 44 46 48 51 56 50 39 32 22 15 16 15 15 12 10 8 6 4 2 2 3 4 6 8 15 17 18 12 4 9 9 8 5 2 3
39 37 37 40 38 39 40 41 39 38 42 47 40 38 62 49 41 18 15 14 12 10 8 6 4 3 4 4 6 8 7 10 11 15 18 12 23 21 19 17 13 5 3
36 35 35 33 37 38 38 38 36 35 37 36 33 33 54 48 54 31 17 16 14 11 9 6 4 4 4 8 9 8 8 11 10 8 12 11 21 20 28 30 21 15 12
36 34 35 34 34 32 33 35 33 33 33 36 32 35 40 44 50 40 26 19 16 14 10 9 6 7 8 11 10 5 8 7 7 11 9 13 17 14 18 33 26 20 20
36 35 33 33 33 32 33 33 35 34 33 32 29 27 31 37 38 50 30 22 21 19 16 12 9 8 9 12 10 6 8 3 4 3 5 11 7 5 6 24 30 28 26
40 38 36 34 32 31 28 32 35 34 29 31 31 27 25 25 31 29 42 26 25 21 19 16 12 11 10 12 9 5 1 8 6 9 7 12 8 11 12 15 22 29 30
38 36 34 35 33 31 28 24 35 32 40 29 30 27 25 25 22 31 42 37 25 24 17 19 14 11 16 8 13 12 12 6 8 8 12 10 7 12 12 17 22 27 30
38 36 35 34 34 32 28 28 21 24 26 32 28 26 24 24 26 28 36 37 30 29 24 24 13 22 13 13 12 11 6 8 10 11 11 13 12 12 8 14 15 20 25
39 37 35 34 33 31 31 21 22 29 26 26 28 26 23 23 21 23 34 35 29 25 26 22 16 16 14 15 15 14 9 8 11 10 8 13 7 8 8 10 10 14 19
36 35 34 35 32 29 28 27 24 21 21 26 25 23 23 22 22 15 19 26 28 25 25 22 18 17 15 16 16 15 14 11 13 15 10 12 11 8 7 10 13 12 15
32 33 34 32 31 31 29 27 25 24 23 29 20 18 19 23 23 22 21 23 19 22 24 22 21 17 16 14 15 18 15 16 15 17 16 12 13 9 7 12 14 15 14
30 32 30 28 30 33 30 27 24 25 26 28 28 25 23 23 29 23 22 20 23 23 19 18 16 18 17 15 16 21 18 15 16 18 18 18 15 11 14 10 14 16 19
34 31 33 35 35 36 32 26 25 29 27 32 27 27 26 26 27 31 26 24 24 23 22 22 17 21 19 18 20 17 17 18 17 15 17 18 18 15 12 17 11 15 17
39 38 43 37 37 34 31 29 25 25 27 29 25 26 26 29 29 33 27 26 25 26 16 21 25 23 18 19 18 18 18 19 20 19 16 16 16 16 14 15 10 8 8
34 36 40 40 42 33 28 29 28 31 28 35 29 28 34 39 29 30 31 26 29 27 23 22 17 18 17 18 19 19 19 17 19 18 18 15 16 15 17 18 14 13 18
32 40 40 38 32 32 28 29 28 24 29 31 31 30 31 34 30 30 29 33 29 22 22 20 18 16 17 18 13 12 16 17 20 20 17 17 16 15 16 17 17 18 17
31 30 31 34 31 26 32 27 30 27 30 30 33 35 32 37 32 33 31 30 31 30 21 26 20 15 10 13 18 11 5 5 20 20 21 17 19 17 18 19 18 17 17
34 12 15 17 29 35 32 34 30 28 29 27 27 27 27 30 34 34 35 33 31 29 28 22 21 19 15 16 16 20 16 7 10 18 19 19 20 18 18 17 16 18 19
53 26 23 23 24 26 28 32 32 34 27 26 21 22 23 25 32 32 33 35 33 34 29 30 28 24 20 23 23 20 21 18 16 13 7 17 16 19 21 21 21 21 21
47 49 40 37 35 31 27 32 34 34 27 26 24 19 17 18 22 31 37 39 34 33 34 28 28 27 24 24 24 25 22 20 22 21 20 14 16 13 18 24 26 26 24
Wind_Direction_500mb
151 145 143 146 144 143 145 145 144 145 147 142 137 133 133 129 126 128 124 120 115 110 113 111 103 99 98 102 105 109 106 106 107 105 102 100 99 92 99 98 81 91 93
150 149 148 149 148 143 148 148 148 149 153 145 140 137 135 130 132 132 130 125 121 114 111 109 103 100 98 101 103 106 110 111 108 101 94 91 88 86 91 97 113 104 99
150 152 148 152 152 146 152 152 151 155 160 149 144 141 137 134 135 137 137 130 124 121 113 109 106 103 98 97 101 106 109 110 109 104 95 106 89 82 86 91 102 105 96
150 148 149 157 157 150 152 153 155 156 163 162 161 150 144 144 141 141 142 132 127 120 116 109 105 100 98 101 105 106 109 107 109 114 112 106 99 77 70 81 94 102 95
149 153 160 159 163 156 152 157 157 157 157 168 170 177 169 163 160 153 150 142 138 127 124 115 105 99 98 102 107 113 124 117 125 142 150 132 139 113 76 68 83 99 110
151 155 158 153 158 164 162 162 164 161 167 168 174 178 189 171 170 175 171 159 152 143 134 125 111 102 102 106 112 128 143 196 132 175 158 139 138 190 128 64 65 85 114
153 162 160 161 160 163 167 169 171 178 184 191 194 191 186 186 182 190 179 175 164 157 147 140 132 128 114 153 169 192 201 181 177 202 193 193 231 234 239 244 281 63 128
155 163 168 168 170 173 174 177 182 186 188 203 205 216 186 190 187 190 190 187 179 175 176 170 186 222 232 239 238 231 228 205 219 224 231 235 245 261 253 243 227 234 177
158 163 166 167 172 176 180 182 186 191 194 205 212 213 206 189 191 177 199 201 199 198 201 198 206 238 265 268 254 248 233 204 199 225 223 244 267 250 254 236 218 228 239
161 169 170 175 174 171 175 180 184 192 203 214 217 221 217 210 203 186 200 207 200 205 212 220 240 275 281 275 280 258 201 213 226 233 234 245 254 258 236 215 218 239 246
168 173 174 177 179 178 181 187 186 195 202 207 218 225 228 231 213 203 201 212 207 215 223 229 245 280 280 289 280 210 181 237 214 164 184 251 251 252 171 202 226 248 251
176 177 182 180 182 182 187 198 195 200 196 203 213 221 215 228 228 207 210 215 214 222 230 242 254 274 286 253 285 229 205 228 214 207 233 252 263 259 239 231 239 243 241
181 180 187 186 188 188 191 214 206 208 203 213 217 227 215 216 224 217 220 224 235 244 237 270 271 295 257 222 229 214 232 236 220 212 240 252 263 281 249 243 245 239 231
186 187 190 191 192 190 203 203 218 224 226 211 212 221 224 222 217 217 204 214 219 221 232 238 254 251 233 240 225 239 241 231 238 225 261 271 257 268 263 255 236 229 226
194 194 197 196 200 199 201 208 209 227 226 222 222 220 224 222 227 230 222 213 218 219 229 232 248 254 239 226 227 228 237 244 240 224 238 263 249 283 261 233 210 207 209
200 202 201 202 205 202 208 207 215 221 227 240 220 225 226 219 221 207 243 221 216 224 219 230 243 233 236 227 234 234 229 232 254 233 222 269 263 269 257 227 217 204 207
202 204 203 206 210 210 211 219 221 225 223 236 224 211 220 218 218 206 209 188 197 206 211 228 228 231 220 231 239 230 248 250 244 241 238 228 278 265 269 235 220 210 212
196 207 206 210 214 221 216 216 221 229 226 232 224 228 223 226 225 223 210 214 196 210 215 217 222 226 221 223 231 227 244 247 248 240 235 225 233 237 285 238 226 219 216
203 205 209 214 211 217 223 220 223 232 231 243 218 230 233 226 227 221 223 219 217 222 219 214 218 221 226 234 255 245 236 240 235 230 225 226 230 218 225 266 241 225 226
206 200 221 222 234 224 211 222 228 231 234 245 236 224 221 228 224 225 210 220 218 233 227 224 225 222 214 230 234 241 248 237 224 236 235 235 232 225 223 227 260 237 261
215 207 211 233 226 217 212 220 227 238 242 244 244 252 238 233 232 229 217 217 226 234 215 236 224 229 228 236 236 232 239 238 218 220 218 222 226 226 221 230 221 225 277
213 216 210 214 224 216 220 225 230 239 245 252 246 242 245 246 234 232 217 222 238 231 232 231 229 236 233 230 222 222 221 202 218 212 219 222 219 229 238 232 226 227 222
221 220 223 227 216 230 225 227 236 238 240 251 249 244 244 248 238 233 228 225 230 233 233 246 238 222 217 221 213 217 236 217 177 202 214 217 222 228 229 228 228 231 233
185 172 190 232 226 232 228 219 232 250 258 258 259 254 247 243 238 236 237 234 231 237 236 235 241 221 224 253 229 231 226 258 244 174 210 220 224 224 225 225 234 234 232
205 192 170 228 221 212 224 223 226 236 251 250 237 247 259 248 232 233 232 233 234 236 244 231 223 236 236 246 230 221 230 237 244 267 193 203 220 232 235 237 238 241 240
212 214 209 227 229 219 219 228 232 235 236 238 244 242 241 242 243 244 241 240 236 234 232 231 229 234 238 242 230 217 230 227 231 232 242 248 240 226 245 243 242 240 239
Wind_Speed_850mb
42 49 51 48 47 46 47 50 58 58 61 58 55 52 47 42 41 41 40 36 33 33 33 33 33 34 35 36 36 38 38 38 35 33 30 30 27 25 26 34 34 27 30
44 51 51 47 46 46 43 48 53 55 59 56 51 48 42 40 38 38 33 31 31 31 34 34 34 35 36 36 35 34 33 34 29 30 28 27 22 20 21 24 27 27 27
45 48 49 49 47 45 46 49 50 51 54 52 46 40 35 33 33 29 28 26 27 28 28 28 28 28 30 29 29 30 29 25 23 24 37 16 18 19 18 20 23 22 22
45 43 40 48 48 47 45 47 44 43 48 46 39 31 24 24 25 23 22 22 24 25 22 20 20 22 22 21 22 24 25 24 20 19 21 17 15 18 15 16 18 19 17
46 42 43 45 46 47 43 44 42 41 41 41 33 24 18 18 20 20 21 21 20 20 18 15 14 15 15 16 16 16 15 9 9 15 17 13 17 10 14 13 13 15 18
42 40 48 44 43 44 45 45 44 42 43 42 37 36 33 25 17 17 17 17 16 15 14 11 10 9 9 10 10 8 6 3 4 10 7 13 15 6 4 8 10 7 10
41 36 44 41 40 41 44 45 44 46 48 51 56 50 39 32 22 15 16 15 15 12 10 8 6 4 2 2 3 4 6 8 15 17 18 12 4 9 9 8 5 2 3
39 37 37 40 38 39 40 41 39 38 42 47 40 38 62 49 41 18 15 14 12 10 8 6 4 3 4 4 6 8 7 10 11 15 18 12 23 21 19 17 13 5 3
36 35 35 33 37 38 38 38 36 35 37 36 33 33 54 48 54 31 17 16 14 11 9 6 4 4 4 8 9 8 8 11 10 8 12 11 21 20 28 30 21 15 12
36 34 35 34 34 32 33 35 33 33 33 36 32 35 40 44 50 40 26 19 16 14 10 9 6 7 8 11 10 5 8 7 7 11 9 13 17 14 18 33 26 20 20
36 35 33 33 33 32 33 33 35 34 33 32 29 27 31 37 38 50 30 22 21 19 16 12 9 8 9 12 10 6 8 3 4 3 5 11 7 5 6 24 30 28 26
40 38 36 34 32 31 28 32 35 34 29 31 31 27 25 25 31 29 42 26 25 21 19 16 12 11 10 12 9 5 1 8 6 9 7 12 8 11 12 15 22 29 30
38 36 34 35 33 31 28 24 35 32 40 29 30 27 25 25 22 31 42 37 25 24 17 19 14 11 16 8 13 12 12 6 8 8 12 10 7 12 12 17 22 27 30
38 36 35 34 34 32 28 28 21 24 26 32 28 26 24 24 26 28 36 37 30 29 24 24 13 22 13 13 12 11 6 8 10 11 11 13 12 12 8 14 15 20 25
39 37 35 34 33 31 31 21 22 29 26 26 28 26 23 23 21 23 34 35 29 25 26 22 16 16 14 15 15 14 9 8 11 10 8 13 7 8 8 10 10 14 19
36 35 34 35 32 29 28 27 24 21 21 26 25 23 23 22 22 15 19 26 28 25 25 22 18 17 15 16 16 15 14 11 13 15 10 12 11 8 7 10 13 12 15
32 33 34 32 31 31 29 27 25 24 23 29 20 18 19 23 23 22 21 23 19 22 24 22 21 17 16 14 15 18 15 16 15 17 16 12 13 9 7 12 14 15 14
30 32 30 28 30 33 30 27 24 25 26 28 28 25 23 23 29 23 22 20 23 23 19 18 16 18 17 15 16 21 18 15 16 18 18 18 15 11 14 10 14 16 19
34 31 33 35 35 36 32 26 25 29 27 32 27 27 26 26 27 31 26 24 24 23 22 22 17 21 19 18 20 17 17 18 17 15 17 18 18 15 12 17 11 15 17
39 38 43 37 37 34 31 29 25 25 27 29 25 26 26 29 29 33 27 26 25 26 16 21 25 23 18 19 18 18 18 19 20 19 16 16 16 16 14 15 10 8 8
34 36 40 40 42 33 28 29 28 31 28 35 29 28 34 39 29 30 31 26 29 27 23 22 17 18 17 18 19 19 19 17 19 18 18 15 16 15 17 18 14 13 18
32 40 40 38 32 32 28 29 28 24 29 31 31 30 31 34 30 30 29 33 29 22 22 20 18 16 17 18 13 12 16 17 20 20 17 17 16 15 16 17 17 18 17
31 30 31 34 31 26 32 27 30 27 30 30 33 35 32 37 32 33 31 30 31 30 21 26 20 15 10 13 18 11 5 5 20 20 21 17 19 17 18 19 18 17 17
34 12 15 17 29 35 32 34 30 28 29 27 27 27 27 30 34 34 35 33 31 29 28 22 21 19 15 16 16 20 16 7 10 18 19 19 20 18 18 17 16 18 19
53 26 23 23 24 26 28 32 32 34 27 26 21 22 23 25 32 32 33 35 33 34 29 30 28 24 20 23 23 20 21 18 16 13 7 17 16 19 21 21 21 21 21
47 49 40 37 35 31 27 32 34 34 27 26 24 19 17 18 22 31 37 39 34 33 34 28 28 27 24 24 24 25 22 20 22 21 20 14 16 13 18 24 26 26 24
Wind_Direction_850mb
151 145 143 146 144 143 145 145 144 145 147 142 137 133 133 129 126 128 124 120 115 110 113 111 103 99 98 102 105 109 106 106 107 105 102 100 99 92 99 98 81 91 93
150 149 148 149 148 143 148 148 148 149 153 145 140 137 135 130 132 132 130 125 121 114 111 109 103 100 98 101 103 106 110 111 108 101 94 91 88 86 91 97 113 104 99
150 152 148 152 152 146 152 152 151 155 160 149 144 141 137 134 135 137 137 130 124 121 113 109 106 103 98 97 101 106 109 110 109 104 95 106 89 82 86 91 102 105 96
150 148 149 157 157 150 152 153 155 156 163 162 161 150 144 144 141 141 142 132 127 120 116 109 105 100 98 101 105 106 109 107 109 114 112 106 99 77 70 81 94 102 95
149 153 160 159 163 156 152 157 157 157 157 168 170 177 169 163 160 153 150 142 138 127 124 115 105 99 98 102 107 113 124 117 125 142 150 132 139 113 76 68 83 99 110
151 155 158 153 158 164 162 162 164 161 167 168 174 178 189 171 170 175 171 159 152 143 134 125 111 102 102 106 112 128 143 196 132 175 158 139 138 190 128 64 65 85 114
153 162 160 161 160 163 167 169 171 178 184 191 194 191 186 186 182 190 179 175 164 157 147 140 132 128 114 153 169 192 201 181 177 202 193 193 231 234 239 244 281 63 128
155 163 168 168 170 173 174 177 182 186 188 203 205 216 186 190 187 190 190 187 179 175 176 170 186 222 232 239 238 231 228 205 219 224 231 235 245 261 253 243 227 234 177
158 163 166 167 172 176 180 182 186 191 194 205 212 213 206 189 191 177 199 201 199 198 201 198 206 238 265 268 254 248 233 204 199 225 223 244 267 250 254 236 218 228 239
161 169 170 175 174 171 175 180 184 192 203 214 217 221 217 210 203 186 200 207 200 205 212 220 240 275 281 275 280 258 201 213 226 233 234 245 254 258 236 215 218 239 246
168 173 174 177 179 178 181 187 186 195 202 207 218 225 228 231 213 203 201 212 207 215 223 229 245 280 280 289 280 210 181 237 214 164 184 251 251 252 171 202 226 248 251
176 177 182 180 182 182 187 198 195 200 196 203 213 221 215 228 228 207 210 215 214 222 230 242 254 274 286 253 285 229 205 228 214 207 233 252 263 259 239 231 239 243 241
181 180 187 186 188 188 191 214 206 208 203 213 217 227 215 216 224 217 220 224 235 244 237 270 271 295 257 222 229 214 232 236 220 212 240 252 263 281 249 243 245 239 231
186 187 190 191 192 190 203 203 218 224 226 211 212 221 224 222 217 217 204 214 219 221 232 238 254 251 233 240 225 239 241 231 238 225 261 271 257 268 263 255 236 229 226
194 194 197 196 200 199 201 208 209 227 226 222 222 220 224 222 227 230 222 213 218 219 229 232 248 254 239 226 227 228 237 244 240 224 238 263 249 283 261 233 210 207 209
200 202 201 202 205 202 208 207 215 221 227 240 220 225 226 219 221 207 243 221 216 224 219 230 243 233 236 227 234 234 229 232 254 233 222 269 263 269 257 227 217 204 207
202 204 203 206 210 210 211 219 221 225 223 236 224 211 220 218 218 206 209 188 197 206 211 228 228 231 220 231 239 230 248 250 244 241 238 228 278 265 269 235 220 210 212
196 207 206 210 214 221 216 216 221 229 226 232 224 228 223 226 225 223 210 214 196 210 215 217 222 226 221 223 231 227 244 247 248 240 235 225 233 237 285 238 226 219 216
203 205 209 214 211 217 223 220 223 232 231 243 218 230 233 226 227 221 223 219 217 222 219 214 218 221 226 234 255 245 236 240 235 230 225 226 230 218 225 266 241 225 226
206 200 221 222 234 224 211 222 228 231 234 245 236 224 221 228 224 225 210 220 218 233 227 224 225 222 214 230 234 241 248 237 224 236 235 235 232 225 223 227 260 237 261
215 207 211 233 226 217 212 220 227 238 242 244 244 252 238 233 232 229 217 217 226 234 215 236 224 229 228 236 236 232 239 238 218 220 218 222 226 226 221 230 221 225 277
213 216 210 214 224 216 220 225 230 239 245 252 246 242 245 246 234 232 217 222 238 231 232 231 229 236 233 230 222 222 221 202 218 212 219 222 219 229 238 232 226 227 222
221 220 223 227 216 230 225 227 236 238 240 251 249 244 244 248 238 233 228 225 230 233 233 246 238 222 217 221 213 217 236 217 177 202 214 217 222 228 229 228 228 231 233
185 172 190 232 226 232 228 219 232 250 258 258 259 254 247 243 238 236 237 234 231 237 236 235 241 221 224 253 229 231 226 258 244 174 210 220 224 224 225 225 234 234 232
205 192 170 228 221 212 224 223 226 236 251 250 237 247 259 248 232 233 232 233 234 236 244 231 223 236 236 246 230 221 230 237 244 267 193 203 220 232 235 237 238 241 240
212 214 209 227 229 219 219 228 232 235 236 238 244 242 241 242 243 244 241 240 236 234 232 231 229 234 238 242 230 217 230 227 231 232 242 248 240 226 245 243 242 240 239